Regional Weather Roundup
Issued by NWS

Home | Current Version | Previous Version | Text Only | Print | Product List | Glossary On
Versions: 1 2 3 4 5 6 7 8 9 10 11 12 13 14 15 16 17 18 19 20 21 22 23 24 25 26 27 28 29 30 31 32 33 34 35 36 37 38 39 40 41 42 43 44 45 46 47 48 49 50
000
ASUS43 KLOT 040312
RWRIL

ILLINOIS REGIONAL WEATHER ROUNDUP
NATIONAL WEATHER SERVICE CHICAGO/ROMEOVILLE IL
1000 PM CDT FRI JUL 03 2015

NOTE: "FAIR" INDICATES FEW OR NO CLOUDS BELOW 12,000 FEET WITH NO
SIGNIFICANT WEATHER AND/OR OBSTRUCTIONS TO VISIBILITY.

* THESE STATIONS ARE NOT UNDER NWS QUALITY CONTROL. THEY ALSO MAY NOT
  REPORT WEATHER SUCH AS PRECIPITATION OR FOG.

ILZ001-002-007-009-015-016-024-040400-
NORTHWEST ILLINOIS

CITY           SKY/WX    TMP DP  RH WIND       PRES   REMARKS
MOLINE         CLEAR     66  60  81 CALM      29.93R
STERLING*      CLEAR     63  59  88 CALM      29.95R
SAVANNA*       CLEAR     64  60  88 CALM      29.94R
$$

ILZ003-004-008-010-011-017-018-040400-
NORTH CENTRAL ILLINOIS

CITY           SKY/WX    TMP DP  RH WIND       PRES   REMARKS
ROCKFORD       PTCLDY    67  59  75 CALM      29.95R
FREEPORT*      CLEAR     62  57  82 W3        29.96R
ROCHELLE*      CLEAR     64  60  86 CALM      29.95R
DE KALB*       CLEAR     63  57  82 W5        29.95R
PERU*          CLEAR     68  59  73 NW3       29.95R
$$

ILZ005-006-012>014-019>023-040400-
NORTHEAST ILLINOIS

CITY           SKY/WX    TMP DP  RH WIND       PRES   REMARKS
CHICAGO-OHARE  MOCLDY    64  53  67 SE6       29.93R
CHICAGO-MIDWAY MOCLDY    67  55  65 SE6       29.93R
AURORA         CLEAR     67  58  72 SE7       29.94R
LANSING*       CLEAR     64  53  67 E3        29.94S
JOLIET*        CLEAR     67  56  69 CALM      29.94R
WAUKEGAN       CLEAR     56  54  93 CALM      29.93R
DUPAGE AIRPORT CLEAR     67  53  61 SE3       29.93R
KANKAKEE*      CLEAR     65  61  86 CALM      29.95R
WHEELING       CLEAR     64  54  69 CALM      29.95R
MORRIS*        CLEAR     67  57  72 E3        29.92R
ROMEOVILLE*    CLEAR     65  54  67 E5        29.94R
NORTHERLY ISL    N/A     63  56  78 S2          N/A
$$

LMZ740>746-040400-
SOUTHERN LAKE MICHIGAN

STATION/POSITION SKY/WX   TEMP    WIND        PRES    VSBY  WAVE
                          AIR SEA DIR/SP/G                  HT/PER
                          (F)     (DEG/KT/KT) (MB)    (MI)  (FT/S)
HARRISON CRIB              63     160/  2/  3   N/A
BURNHAM HARBOR             63     160/  1/  3   N/A
CALUMET HARBOR             65     110/  3/  4   N/A
BURNS HARBOR               65      80/  6/  8 1014.2R
MICHIGAN CITY              63      50/  6/  7   N/A
MICHIGAN CITY 6N           63 64  140/  4/  6   N/A           1
ST. JOSEPH                 62 62                N/A           1
$$

ILZ025>027-034>036-040-047-049-050-058-095>099-040400-
WEST-CENTRAL ILLINOIS

CITY           SKY/WX    TMP DP  RH WIND       PRES   REMARKS
QUINCY         CLEAR     68  62  81 N5        29.94R
GALESBURG*     CLEAR     65  60  83 CALM      29.95R
MACOMB*        CLEAR     65  63  91 N3        29.96R
JACKSONVILLE*  CLEAR     70  66  89 CALM      29.93R
PITTSFIELD*    CLEAR     70  64  83 CALM      29.95R
$$

ILZ028>032-037-038-041>044-048-051>054-059>061-040400-
CENTRAL ILLINOIS

CITY           SKY/WX    TMP DP  RH WIND       PRES   REMARKS
PONTIAC        CLEAR     65  62  88 CALM      29.95R FOG
BLOOMINGTON    CLEAR     68  61  78 NE3       29.96R
DECATUR        CLEAR     67  63  87 CALM      29.94R
PEORIA         CLEAR     69  60  73 CALM      29.94R
LACON*         CLEAR     63  59  87 CALM      29.94R
LINCOLN*       MOCLDY    68  64  87 CALM      29.94R
SPRINGFIELD    MOCLDY    70  66  87 CALM      29.93R
TAYLORVILLE    CLEAR     68  64  88 E5        29.94R
$$

ILZ033-039-045-046-055>057-062-063-040400-
EAST-CENTRAL ILLINOIS

CITY           SKY/WX    TMP DP  RH WIND       PRES   REMARKS
CHAMPAIGN      CLEAR     63  60  90 CALM      29.94R
DANVILLE*      CLEAR     62  61  96 CALM      29.91R
RANTOUL*       CLEAR     69  62  79 CALM      29.94R
MATTOON        CLEAR     67  63  87 N5        29.93R
PARIS*         CLEAR     68  65  90 N3        29.94R
$$

ILZ079-100>102-040400-
SOUTHWEST ILLINOIS

CITY           SKY/WX    TMP DP  RH WIND       PRES   REMARKS
ALTON          PTCLDY    68  68 100 CALM      29.92
BELLEVILLE     CLEAR     72  70  94 N2        29.90R
CAHOKIA*       CLEAR     74  67  78 NE6       29.91R
SPARTA*        CLEAR     73  68  86 CALM      29.91R
$$

ILZ064>066-069>071-074>076-080>082-084>086-088>090-092>094-040400-
SOUTH-CENTRAL ILLINOIS

CITY           SKY/WX    TMP DP  RH WIND       PRES   REMARKS
CARBONDALE     MOCLDY    74  68  81 E3        29.89R
CAIRO*         PTCLDY    73  72  97 CALM      29.88R
EFFINGHAM*     CLEAR     70  63  78 CALM      29.94R
MARION         PTCLDY    72  70  94 CALM      29.90R
MT. VERNON     CLEAR     68  63  83 CALM      29.91R
CENTRALIA*     CLEAR     71  66  85 NE3       29.92R
SALEM*         CLEAR     73  67  83 CALM      29.92R
METROPOLIS*    CLEAR     72  72 100 CALM      29.89R
$$

ILZ067-068-072-073-078-083-087-091-040400-
SOUTHEAST ILLINOIS

CITY           SKY/WX    TMP DP  RH WIND       PRES   REMARKS
LAWRENCEVILLE  CLEAR     70  67  90 CALM      29.92R FOG
FLORA*         PTCLDY    70  66  88 N3        29.92R
FAIRFIELD*     PTCLDY    71  70  98 N3        29.90R FOG
HARRISBURG*    CLEAR     72  69  91 N3        29.90R
ROBINSON*      CLEAR     67  66  95 CALM      29.92R
CARMI*         PTCLDY    72  64  77 N5        29.90R
$$

ABBREVIATIONS USED IN REMARKS
   TC - TEMPERATURE IN CELSIUS
  WCI - WIND CHILL INDEX
   HX - HEAT INDEX
  VSB - VISIBILITY
$$




USA.gov is the U.S. government's official web portal to all federal, state and local government web resources and services.